Year,Month,Day,Hour,Minute,Value (Times are PST for windspeed in km/hr)
2019,04,04,00,00,2.30
2019,04,04,00,01,8.10
2019,04,04,00,02,16.80
2019,04,04,00,03,18.30
2019,04,04,00,04,13.40
2019,04,04,00,05,4.10
2019,04,04,00,06,16.00
2019,04,04,00,07,3.10
2019,04,04,00,08,2.30
2019,04,04,00,09,0.00
2019,04,04,00,10,1.50
2019,04,04,00,11,5.60
2019,04,04,00,12,9.10
2019,04,04,00,13,7.60
2019,04,04,00,14,0.50
2019,04,04,00,15,12.90
2019,04,04,00,16,12.50
2019,04,04,00,17,19.10
2019,04,04,00,18,8.80
2019,04,04,00,19,4.80
2019,04,04,00,20,12.30
2019,04,04,00,21,11.60
2019,04,04,00,22,19.20
2019,04,04,00,23,18.70
2019,04,04,00,24,4.20
2019,04,04,00,25,3.00
2019,04,04,00,26,4.10
2019,04,04,00,27,6.40
2019,04,04,00,28,2.30
2019,04,04,00,29,3.20
2019,04,04,00,30,4.50
2019,04,04,00,31,0.00
2019,04,04,00,32,0.00
2019,04,04,00,33,0.20
2019,04,04,00,34,0.00
2019,04,04,00,35,0.10
2019,04,04,00,36,0.00
2019,04,04,00,37,7.80
2019,04,04,00,38,9.10
2019,04,04,00,39,0.40
2019,04,04,00,40,2.20
2019,04,04,00,41,0.00
2019,04,04,00,42,0.10
2019,04,04,00,43,0.10
2019,04,04,00,44,0.10
2019,04,04,00,45,0.10
2019,04,04,00,46,1.50
2019,04,04,00,47,12.50
2019,04,04,00,48,4.10
2019,04,04,00,49,0.60
2019,04,04,00,50,0.00
2019,04,04,00,51,6.60
2019,04,04,00,52,8.80
2019,04,04,00,53,1.40
2019,04,04,00,54,10.50
2019,04,04,00,55,25.10
2019,04,04,00,56,15.60
2019,04,04,00,57,9.10
2019,04,04,00,58,14.20
2019,04,04,00,59,17.70
2019,04,04,01,00,15.40
2019,04,04,01,01,18.90
2019,04,04,01,02,21.30
2019,04,04,01,03,9.20
2019,04,04,01,04,12.50
2019,04,04,01,05,15.80
2019,04,04,01,06,8.70
2019,04,04,01,07,8.70
2019,04,04,01,08,13.00
2019,04,04,01,09,15.90
2019,04,04,01,10,19.90
2019,04,04,01,11,17.30
2019,04,04,01,12,5.40
2019,04,04,01,13,24.10
2019,04,04,01,14,14.60
2019,04,04,01,15,3.80
2019,04,04,01,16,0.00
2019,04,04,01,17,3.10
2019,04,04,01,18,1.00
2019,04,04,01,19,2.10
2019,04,04,01,20,13.30
2019,04,04,01,21,13.90
2019,04,04,01,22,20.20
2019,04,04,01,23,6.80
2019,04,04,01,24,13.70
2019,04,04,01,25,0.20
2019,04,04,01,26,8.70
2019,04,04,01,27,14.50
2019,04,04,01,28,10.90
2019,04,04,01,29,15.00
2019,04,04,01,30,22.20
2019,04,04,01,31,24.20
2019,04,04,01,32,15.00
2019,04,04,01,33,15.30
2019,04,04,01,34,9.40
2019,04,04,01,35,15.90
2019,04,04,01,36,17.50
2019,04,04,01,37,17.90
2019,04,04,01,38,11.60
2019,04,04,01,39,10.50
2019,04,04,01,40,11.40
2019,04,04,01,41,1.90
2019,04,04,01,42,12.60
2019,04,04,01,43,21.70
2019,04,04,01,44,28.20
2019,04,04,01,45,20.90
2019,04,04,01,46,25.00
2019,04,04,01,47,28.10
2019,04,04,01,48,33.10
2019,04,04,01,49,24.50
2019,04,04,01,50,13.60
2019,04,04,01,51,16.90
2019,04,04,01,52,17.30
2019,04,04,01,53,13.00
2019,04,04,01,54,9.90
2019,04,04,01,55,19.80
2019,04,04,01,56,26.60
2019,04,04,01,57,20.60
2019,04,04,01,58,19.00
2019,04,04,01,59,11.10
2019,04,04,02,00,12.10
2019,04,04,02,01,14.40
2019,04,04,02,02,18.60
2019,04,04,02,03,10.60
2019,04,04,02,04,2.70
2019,04,04,02,05,10.30
2019,04,04,02,06,10.80
2019,04,04,02,07,13.80
2019,04,04,02,08,5.60
2019,04,04,02,09,2.30
2019,04,04,02,10,9.40
2019,04,04,02,11,0.10
2019,04,04,02,12,8.50
2019,04,04,02,13,5.70
2019,04,04,02,14,0.10
2019,04,04,02,15,7.80
2019,04,04,02,16,0.30
2019,04,04,02,17,12.80
2019,04,04,02,18,7.90
2019,04,04,02,19,11.90
2019,04,04,02,20,20.60
2019,04,04,02,21,12.40
2019,04,04,02,22,8.50
2019,04,04,02,23,1.60
2019,04,04,02,24,6.00
2019,04,04,02,25,11.90
2019,04,04,02,26,13.90
2019,04,04,02,27,4.30
2019,04,04,02,28,0.10
2019,04,04,02,29,5.10
2019,04,04,02,30,8.40
2019,04,04,02,31,10.80
2019,04,04,02,32,4.10
2019,04,04,02,33,0.10
2019,04,04,02,34,1.70
2019,04,04,02,35,1.50
2019,04,04,02,36,0.00
2019,04,04,02,37,10.50
2019,04,04,02,38,16.30
2019,04,04,02,39,5.80
2019,04,04,02,40,3.90
2019,04,04,02,41,14.00
2019,04,04,02,42,13.40
2019,04,04,02,43,1.50
2019,04,04,02,44,0.20
2019,04,04,02,45,0.00
2019,04,04,02,46,0.00
2019,04,04,02,47,4.30
2019,04,04,02,48,2.70
2019,04,04,02,49,0.00
2019,04,04,02,50,0.10
2019,04,04,02,51,0.90
2019,04,04,02,52,6.80
2019,04,04,02,53,0.10
2019,04,04,02,54,0.10
2019,04,04,02,55,4.80
2019,04,04,02,56,15.70
2019,04,04,02,57,16.70
2019,04,04,02,58,7.00
2019,04,04,02,59,5.90
2019,04,04,03,00,7.50
2019,04,04,03,01,6.40
2019,04,04,03,02,5.60
2019,04,04,03,03,0.00
2019,04,04,03,04,0.00
2019,04,04,03,05,0.00
2019,04,04,03,06,0.00
2019,04,04,03,07,0.00
2019,04,04,03,08,0.00
2019,04,04,03,09,0.00
2019,04,04,03,10,0.00
2019,04,04,03,11,0.00
2019,04,04,03,12,0.10
2019,04,04,03,13,0.10
2019,04,04,03,14,0.10
2019,04,04,03,15,0.00
2019,04,04,03,16,0.10
2019,04,04,03,17,0.10
2019,04,04,03,18,0.00
2019,04,04,03,19,0.00
2019,04,04,03,20,0.00
2019,04,04,03,21,0.10
2019,04,04,03,22,0.00
2019,04,04,03,23,0.00
2019,04,04,03,24,0.00
2019,04,04,03,25,0.00
2019,04,04,03,26,0.00
2019,04,04,03,27,0.10
2019,04,04,03,28,1.30
2019,04,04,03,29,0.00
2019,04,04,03,30,0.00
2019,04,04,03,31,0.00
2019,04,04,03,32,0.00
2019,04,04,03,33,0.00
2019,04,04,03,34,0.00
2019,04,04,03,35,0.00
2019,04,04,03,36,0.00
2019,04,04,03,37,0.00
2019,04,04,03,38,0.00
2019,04,04,03,39,0.10
2019,04,04,03,40,0.20
2019,04,04,03,41,9.10
2019,04,04,03,42,5.00
2019,04,04,03,43,0.00
2019,04,04,03,44,2.40
2019,04,04,03,45,3.20
2019,04,04,03,46,6.20
2019,04,04,03,47,0.00
2019,04,04,03,48,10.40
2019,04,04,03,49,6.30
2019,04,04,03,50,0.00
2019,04,04,03,51,3.60
2019,04,04,03,52,1.50
2019,04,04,03,53,0.00
2019,04,04,03,54,0.00
2019,04,04,03,55,0.00
2019,04,04,03,56,4.80
2019,04,04,03,57,3.00
2019,04,04,03,58,8.40
2019,04,04,03,59,0.20
2019,04,04,04,00,0.00
2019,04,04,04,01,0.00
2019,04,04,04,02,0.00
2019,04,04,04,03,0.00
2019,04,04,04,04,0.00
2019,04,04,04,05,0.00
2019,04,04,04,06,1.00
2019,04,04,04,07,6.70
2019,04,04,04,08,0.40
2019,04,04,04,09,3.60
2019,04,04,04,10,0.90
2019,04,04,04,11,2.20
2019,04,04,04,12,0.00
2019,04,04,04,13,0.10
2019,04,04,04,14,0.90
2019,04,04,04,15,3.90
2019,04,04,04,16,2.10
2019,04,04,04,17,0.00
2019,04,04,04,18,0.00
2019,04,04,04,19,0.00
2019,04,04,04,20,0.10
2019,04,04,04,21,0.00
2019,04,04,04,22,5.60
2019,04,04,04,23,15.30
2019,04,04,04,24,14.50
2019,04,04,04,25,7.20
2019,04,04,04,26,10.60
2019,04,04,04,27,0.90
2019,04,04,04,28,0.00
2019,04,04,04,29,0.00
2019,04,04,04,30,2.50
2019,04,04,04,31,0.00
2019,04,04,04,32,0.00
2019,04,04,04,33,0.30
2019,04,04,04,34,0.00
2019,04,04,04,35,0.00
2019,04,04,04,36,0.00
2019,04,04,04,37,0.20
2019,04,04,04,38,0.00
2019,04,04,04,39,0.10
2019,04,04,04,40,0.20
2019,04,04,04,41,6.50
2019,04,04,04,42,10.70
2019,04,04,04,43,8.70
2019,04,04,04,44,1.30
2019,04,04,04,45,0.00
2019,04,04,04,46,0.00
2019,04,04,04,47,7.80
2019,04,04,04,48,3.10
2019,04,04,04,49,0.10
2019,04,04,04,50,0.00
2019,04,04,04,51,0.00
2019,04,04,04,52,0.00
2019,04,04,04,53,0.10
2019,04,04,04,54,0.00
2019,04,04,04,55,0.00
2019,04,04,04,56,0.00
2019,04,04,04,57,0.00
2019,04,04,04,58,0.00
2019,04,04,04,59,0.00
2019,04,04,05,00,4.70
2019,04,04,05,01,5.50
2019,04,04,05,02,0.10
2019,04,04,05,03,0.30
2019,04,04,05,04,0.00
2019,04,04,05,05,1.50
2019,04,04,05,06,0.00
2019,04,04,05,07,0.00
2019,04,04,05,08,0.00
2019,04,04,05,09,0.00
2019,04,04,05,10,0.00
2019,04,04,05,11,0.00
2019,04,04,05,12,0.10
2019,04,04,05,13,0.10
2019,04,04,05,14,3.10
2019,04,04,05,15,12.90
2019,04,04,05,16,12.70
2019,04,04,05,17,8.30
2019,04,04,05,18,6.00
2019,04,04,05,19,7.20
2019,04,04,05,20,1.50
2019,04,04,05,21,0.00
2019,04,04,05,22,8.70
2019,04,04,05,23,8.20
2019,04,04,05,24,9.00
2019,04,04,05,25,1.90
2019,04,04,05,26,2.50
2019,04,04,05,27,0.00
2019,04,04,05,28,0.00
2019,04,04,05,29,0.00
2019,04,04,05,30,0.10
2019,04,04,05,31,0.10
2019,04,04,05,32,0.00
2019,04,04,05,33,0.00
2019,04,04,05,34,4.10
2019,04,04,05,35,1.80
2019,04,04,05,36,3.20
2019,04,04,05,37,10.60
2019,04,04,05,38,15.70
2019,04,04,05,39,11.20
2019,04,04,05,40,1.10
2019,04,04,05,41,0.30
2019,04,04,05,42,7.50
2019,04,04,05,43,0.10
2019,04,04,05,44,0.00
2019,04,04,05,45,9.40
2019,04,04,05,46,5.40
2019,04,04,05,47,17.40
2019,04,04,05,48,21.40
2019,04,04,05,49,6.40
2019,04,04,05,50,4.60
2019,04,04,05,51,11.70
2019,04,04,05,52,3.60
2019,04,04,05,53,2.00
2019,04,04,05,54,2.10
2019,04,04,05,55,16.80
2019,04,04,05,56,3.50
2019,04,04,05,57,6.20
2019,04,04,05,58,11.80
2019,04,04,05,59,11.50
2019,04,04,06,00,4.60
2019,04,04,06,01,3.00
2019,04,04,06,02,9.60
2019,04,04,06,03,2.70
2019,04,04,06,04,2.10
2019,04,04,06,05,12.40
2019,04,04,06,06,11.40
2019,04,04,06,07,1.20
2019,04,04,06,08,0.00
2019,04,04,06,09,0.00
2019,04,04,06,10,0.00
2019,04,04,06,11,2.40
2019,04,04,06,12,2.30
2019,04,04,06,13,3.70
2019,04,04,06,14,0.00
2019,04,04,06,15,0.10
2019,04,04,06,16,0.00
2019,04,04,06,17,0.00
2019,04,04,06,18,0.00
2019,04,04,06,19,5.30
2019,04,04,06,20,4.80
2019,04,04,06,21,10.90
2019,04,04,06,22,12.00
2019,04,04,06,23,17.00
2019,04,04,06,24,18.60
2019,04,04,06,25,13.10
2019,04,04,06,26,11.50
2019,04,04,06,27,14.20
2019,04,04,06,28,13.40
2019,04,04,06,29,3.60
2019,04,04,06,30,6.80
2019,04,04,06,31,12.00
2019,04,04,06,32,3.40
2019,04,04,06,33,0.10
2019,04,04,06,34,6.90
2019,04,04,06,35,0.00
2019,04,04,06,36,0.00
2019,04,04,06,37,0.00
2019,04,04,06,38,0.00
2019,04,04,06,39,0.00
2019,04,04,06,40,0.10
2019,04,04,06,41,0.10
2019,04,04,06,42,0.00
2019,04,04,06,43,0.00
2019,04,04,06,44,0.00
2019,04,04,06,45,0.00
2019,04,04,06,46,0.00
2019,04,04,06,47,0.00
2019,04,04,06,48,0.00
2019,04,04,06,49,0.00
2019,04,04,06,50,0.00
2019,04,04,06,51,0.00
2019,04,04,06,52,0.00
2019,04,04,06,53,0.00
2019,04,04,06,54,0.00
2019,04,04,06,55,0.00
2019,04,04,06,56,0.00
2019,04,04,06,57,0.00
2019,04,04,06,58,0.00
2019,04,04,06,59,0.00
2019,04,04,07,00,0.00
2019,04,04,07,01,0.00
2019,04,04,07,02,0.00
2019,04,04,07,03,0.00
2019,04,04,07,04,0.00
2019,04,04,07,05,0.00
2019,04,04,07,06,0.00
2019,04,04,07,07,0.00
2019,04,04,07,08,0.00
2019,04,04,07,09,0.00
2019,04,04,07,10,0.00
2019,04,04,07,11,0.10
2019,04,04,07,12,0.00
2019,04,04,07,13,9.30
2019,04,04,07,14,7.40
2019,04,04,07,15,0.10
2019,04,04,07,16,0.10
2019,04,04,07,17,2.90
2019,04,04,07,18,11.20
2019,04,04,07,19,10.10
2019,04,04,07,20,8.20
2019,04,04,07,21,15.40
2019,04,04,07,22,11.90
2019,04,04,07,23,9.90
2019,04,04,07,24,3.50
2019,04,04,07,25,7.00
2019,04,04,07,26,12.70
2019,04,04,07,27,13.70
2019,04,04,07,28,9.10
2019,04,04,07,29,0.40
2019,04,04,07,30,0.80
2019,04,04,07,31,0.00
2019,04,04,07,32,6.70
2019,04,04,07,33,4.60
2019,04,04,07,34,6.70
2019,04,04,07,35,3.20
2019,04,04,07,36,1.30
2019,04,04,07,37,1.20
2019,04,04,07,38,2.00
2019,04,04,07,39,10.50
2019,04,04,07,40,1.90
2019,04,04,07,41,6.40
2019,04,04,07,42,7.80
2019,04,04,07,43,0.30
2019,04,04,07,44,0.00
2019,04,04,07,45,0.00
2019,04,04,07,46,5.60
2019,04,04,07,47,4.90
2019,04,04,07,48,2.90
2019,04,04,07,49,8.00
2019,04,04,07,50,9.30
2019,04,04,07,51,14.40
2019,04,04,07,52,17.40
2019,04,04,07,53,15.00
2019,04,04,07,54,17.80
2019,04,04,07,55,10.20
2019,04,04,07,56,15.60
2019,04,04,07,57,16.70
2019,04,04,07,58,20.10
2019,04,04,07,59,14.50
2019,04,04,08,00,19.90
2019,04,04,08,01,21.80
2019,04,04,08,02,27.20
2019,04,04,08,03,22.50
2019,04,04,08,04,24.40
2019,04,04,08,05,13.60
2019,04,04,08,06,12.00
2019,04,04,08,07,15.90
2019,04,04,08,08,14.10
2019,04,04,08,09,21.70
2019,04,04,08,10,17.40
2019,04,04,08,11,10.10
2019,04,04,08,12,13.20
2019,04,04,08,13,19.80
2019,04,04,08,14,23.30
2019,04,04,08,15,19.20
2019,04,04,08,16,17.50
2019,04,04,08,17,15.90
2019,04,04,08,18,18.50
2019,04,04,08,19,20.60
2019,04,04,08,20,23.90
2019,04,04,08,21,24.70
2019,04,04,08,22,21.20
2019,04,04,08,23,24.40
2019,04,04,08,24,21.90
2019,04,04,08,25,23.10
2019,04,04,08,26,23.60
2019,04,04,08,27,24.70
2019,04,04,08,28,20.40
2019,04,04,08,29,29.00
2019,04,04,08,30,17.70
2019,04,04,08,31,19.40
2019,04,04,08,32,23.20
2019,04,04,08,33,24.90
2019,04,04,08,34,21.70
2019,04,04,08,35,27.70
2019,04,04,08,36,24.90
2019,04,04,08,37,22.90
2019,04,04,08,38,21.80
2019,04,04,08,39,31.40
2019,04,04,08,40,22.20
2019,04,04,08,41,19.80
2019,04,04,08,42,26.50
2019,04,04,08,43,22.90
2019,04,04,08,44,27.30
2019,04,04,08,45,21.40
2019,04,04,08,46,22.90
2019,04,04,08,47,15.30
2019,04,04,08,48,20.40
2019,04,04,08,49,13.50
2019,04,04,08,50,8.70
2019,04,04,08,51,11.30
2019,04,04,08,52,26.40
2019,04,04,08,53,19.30
2019,04,04,08,54,22.00
2019,04,04,08,55,21.50
2019,04,04,08,56,15.40
2019,04,04,08,57,12.50
2019,04,04,08,58,21.60
2019,04,04,08,59,20.50
2019,04,04,09,00,22.50
2019,04,04,09,01,20.40
2019,04,04,09,02,21.20
2019,04,04,09,03,13.50
2019,04,04,09,04,3.90
2019,04,04,09,05,9.30
2019,04,04,09,06,19.50
2019,04,04,09,07,23.10
2019,04,04,09,08,23.60
2019,04,04,09,09,13.10
2019,04,04,09,10,6.70
2019,04,04,09,11,12.80
2019,04,04,09,12,16.90
2019,04,04,09,13,19.00
2019,04,04,09,14,18.80
2019,04,04,09,15,23.00
2019,04,04,09,16,27.90
2019,04,04,09,17,24.90
2019,04,04,09,18,26.50
2019,04,04,09,19,20.60
2019,04,04,09,20,20.20
2019,04,04,09,21,14.20
2019,04,04,09,22,11.60
2019,04,04,09,23,16.40
2019,04,04,09,24,17.00
2019,04,04,09,25,20.90
2019,04,04,09,26,22.10
2019,04,04,09,27,14.50
2019,04,04,09,28,10.00
2019,04,04,09,29,20.40
2019,04,04,09,30,14.90
2019,04,04,09,31,16.20
2019,04,04,09,32,22.60
2019,04,04,09,33,12.40
2019,04,04,09,34,17.20
2019,04,04,09,35,11.60
2019,04,04,09,36,16.50
2019,04,04,09,37,19.10
2019,04,04,09,38,21.80
2019,04,04,09,39,24.90
2019,04,04,09,40,17.30
2019,04,04,09,41,17.20
2019,04,04,09,42,14.90
2019,04,04,09,43,21.30
2019,04,04,09,44,18.40
2019,04,04,09,45,20.70
2019,04,04,09,46,17.60
2019,04,04,09,47,19.70
2019,04,04,09,48,22.70
2019,04,04,09,49,21.10
2019,04,04,09,50,14.80
2019,04,04,09,51,16.50
2019,04,04,09,52,17.00
2019,04,04,09,53,19.50
2019,04,04,09,54,17.60
2019,04,04,09,55,18.30
2019,04,04,09,56,21.50
2019,04,04,09,57,17.90
2019,04,04,09,58,10.50
2019,04,04,09,59,10.60
2019,04,04,10,00,11.10
2019,04,04,10,01,12.60
2019,04,04,10,02,17.40
2019,04,04,10,03,21.40
2019,04,04,10,04,18.30
2019,04,04,10,05,16.80
2019,04,04,10,06,16.70
2019,04,04,10,07,12.30
2019,04,04,10,08,17.40
2019,04,04,10,09,10.10
2019,04,04,10,10,11.80
2019,04,04,10,11,15.90
2019,04,04,10,12,9.60
2019,04,04,10,13,9.60
2019,04,04,10,14,21.00
2019,04,04,10,15,20.20
2019,04,04,10,16,15.50
2019,04,04,10,17,7.00
2019,04,04,10,18,17.00
2019,04,04,10,19,25.80
2019,04,04,10,20,25.90
2019,04,04,10,21,17.20
2019,04,04,10,22,15.30
2019,04,04,10,23,18.20
2019,04,04,10,24,16.30
2019,04,04,10,25,17.30
2019,04,04,10,26,13.60
2019,04,04,10,27,25.30
2019,04,04,10,28,25.10
2019,04,04,10,29,21.30
2019,04,04,10,30,16.30
2019,04,04,10,31,25.20
2019,04,04,10,32,20.50
2019,04,04,10,33,22.50
2019,04,04,10,34,19.80
2019,04,04,10,35,22.20
2019,04,04,10,36,22.00
2019,04,04,10,37,18.50
2019,04,04,10,38,30.60
2019,04,04,10,39,26.20
2019,04,04,10,40,20.20
2019,04,04,10,41,21.80
2019,04,04,10,42,19.10
2019,04,04,10,43,16.50
2019,04,04,10,44,14.40
2019,04,04,10,45,22.30
2019,04,04,10,46,18.50
2019,04,04,10,47,22.60
2019,04,04,10,48,17.10
2019,04,04,10,49,15.30
2019,04,04,10,50,10.90
2019,04,04,10,51,18.80
2019,04,04,10,52,23.90
2019,04,04,10,53,13.20
2019,04,04,10,54,24.10
2019,04,04,10,55,25.20
2019,04,04,10,56,16.60
2019,04,04,10,57,7.80
2019,04,04,10,58,27.60
2019,04,04,10,59,16.00
2019,04,04,11,00,15.10
2019,04,04,11,01,18.70
2019,04,04,11,02,9.80
2019,04,04,11,03,15.00
2019,04,04,11,04,16.40
2019,04,04,11,05,14.30
2019,04,04,11,06,9.20
2019,04,04,11,07,8.60
2019,04,04,11,08,13.80
2019,04,04,11,09,22.20
2019,04,04,11,10,18.60
2019,04,04,11,11,15.80
2019,04,04,11,12,10.40
2019,04,04,11,13,12.60
2019,04,04,11,14,17.20
2019,04,04,11,15,9.80
2019,04,04,11,16,5.40
2019,04,04,11,17,7.10
2019,04,04,11,18,7.50
2019,04,04,11,19,18.20
2019,04,04,11,20,9.10
2019,04,04,11,21,4.00
2019,04,04,11,22,13.80
2019,04,04,11,23,9.80
2019,04,04,11,24,15.00
2019,04,04,11,25,21.70
2019,04,04,11,26,21.70
2019,04,04,11,27,10.20
2019,04,04,11,28,17.30
2019,04,04,11,29,16.40
2019,04,04,11,30,12.40
2019,04,04,11,31,13.80
2019,04,04,11,32,24.30
2019,04,04,11,33,25.50
2019,04,04,11,34,22.10
2019,04,04,11,35,29.80
2019,04,04,11,36,24.40
2019,04,04,11,37,22.50
2019,04,04,11,38,29.00
2019,04,04,11,39,13.10
2019,04,04,11,40,30.10
2019,04,04,11,41,18.60
2019,04,04,11,42,18.50
2019,04,04,11,43,13.70
2019,04,04,11,44,5.60
2019,04,04,11,45,16.00
2019,04,04,11,46,21.80
2019,04,04,11,47,22.00
2019,04,04,11,48,19.60
2019,04,04,11,49,9.70
2019,04,04,11,50,17.50
2019,04,04,11,51,22.20
2019,04,04,11,52,23.10
2019,04,04,11,53,24.20
2019,04,04,11,54,16.20
2019,04,04,11,55,10.80
2019,04,04,11,56,21.00
2019,04,04,11,57,24.70
2019,04,04,11,58,12.90
2019,04,04,11,59,14.40
2019,04,04,12,00,26.40
2019,04,04,12,01,17.20
2019,04,04,12,02,28.80
2019,04,04,12,03,20.40
2019,04,04,12,04,19.50
2019,04,04,12,05,14.30
2019,04,04,12,06,12.20
2019,04,04,12,07,18.40
2019,04,04,12,08,10.30
2019,04,04,12,09,19.80
2019,04,04,12,10,8.80
2019,04,04,12,11,7.20
2019,04,04,12,12,18.30
2019,04,04,12,13,22.80
2019,04,04,12,14,30.40
2019,04,04,12,15,20.70
2019,04,04,12,16,20.20
2019,04,04,12,17,18.30
2019,04,04,12,18,21.30
2019,04,04,12,19,23.10
2019,04,04,12,20,28.80
2019,04,04,12,21,16.90
2019,04,04,12,22,22.80
2019,04,04,12,23,18.80
2019,04,04,12,24,12.00
2019,04,04,12,25,15.00
2019,04,04,12,26,9.50
2019,04,04,12,27,4.40
2019,04,04,12,28,18.40
2019,04,04,12,29,12.90
2019,04,04,12,30,5.40
2019,04,04,12,31,4.80
2019,04,04,12,32,16.30
2019,04,04,12,33,13.30
2019,04,04,12,34,26.30
2019,04,04,12,35,14.60
2019,04,04,12,36,16.00
2019,04,04,12,37,22.30
2019,04,04,12,38,20.80
2019,04,04,12,39,6.30
2019,04,04,12,40,20.50
2019,04,04,12,41,19.80
2019,04,04,12,42,26.70
2019,04,04,12,43,20.00
2019,04,04,12,44,17.00
2019,04,04,12,45,10.50
2019,04,04,12,46,21.50
2019,04,04,12,47,18.20
2019,04,04,12,48,15.70
2019,04,04,12,49,16.10
2019,04,04,12,50,12.70
2019,04,04,12,51,7.70
2019,04,04,12,52,12.10
2019,04,04,12,53,11.40
2019,04,04,12,54,13.40
2019,04,04,12,55,12.00
2019,04,04,12,56,5.10
2019,04,04,12,57,14.80
2019,04,04,12,58,18.90
2019,04,04,12,59,21.90
2019,04,04,13,00,10.70
2019,04,04,13,01,16.00
2019,04,04,13,02,17.60
2019,04,04,13,03,20.60
2019,04,04,13,04,20.20
2019,04,04,13,05,19.50
2019,04,04,13,06,11.00
2019,04,04,13,07,14.10
2019,04,04,13,08,15.70
2019,04,04,13,09,9.60
2019,04,04,13,10,5.90
2019,04,04,13,11,2.60
2019,04,04,13,12,6.80
2019,04,04,13,13,15.30
2019,04,04,13,14,9.70
2019,04,04,13,15,17.60
2019,04,04,13,16,12.20
2019,04,04,13,17,18.20
2019,04,04,13,18,15.80
2019,04,04,13,19,13.30
2019,04,04,13,20,16.60
2019,04,04,13,21,11.90
2019,04,04,13,22,15.90
2019,04,04,13,23,15.00
2019,04,04,13,24,16.20
2019,04,04,13,25,13.80
2019,04,04,13,26,19.70
2019,04,04,13,27,19.90
2019,04,04,13,28,10.80
2019,04,04,13,29,18.20
2019,04,04,13,30,12.00
2019,04,04,13,31,16.30
2019,04,04,13,32,20.90
2019,04,04,13,33,12.80
2019,04,04,13,34,17.20
2019,04,04,13,35,15.10
2019,04,04,13,36,18.10
2019,04,04,13,37,16.90
2019,04,04,13,38,12.70
2019,04,04,13,39,16.10
2019,04,04,13,40,14.90
2019,04,04,13,41,22.20
2019,04,04,13,42,18.60
2019,04,04,13,43,10.00
2019,04,04,13,44,11.70
2019,04,04,13,45,22.60
2019,04,04,13,46,16.80
2019,04,04,13,47,18.50
2019,04,04,13,48,22.10
2019,04,04,13,49,18.40
2019,04,04,13,50,13.20
2019,04,04,13,51,5.10
2019,04,04,13,52,0.80
2019,04,04,13,53,5.90
2019,04,04,13,54,14.10
2019,04,04,13,55,14.10
2019,04,04,13,56,18.10
2019,04,04,13,57,5.10
2019,04,04,13,58,2.40
2019,04,04,13,59,16.70
2019,04,04,14,00,8.80
2019,04,04,14,01,0.30
2019,04,04,14,02,8.40
2019,04,04,14,03,11.80
2019,04,04,14,04,11.60
2019,04,04,14,05,9.90
2019,04,04,14,06,0.00
2019,04,04,14,07,7.20
2019,04,04,14,08,8.70
2019,04,04,14,09,0.10
2019,04,04,14,10,0.20
2019,04,04,14,11,2.70
2019,04,04,14,12,7.90
2019,04,04,14,13,22.10
2019,04,04,14,14,13.30
2019,04,04,14,15,9.80
2019,04,04,14,16,8.10
2019,04,04,14,17,5.40
2019,04,04,14,18,8.40
2019,04,04,14,19,5.70
2019,04,04,14,20,4.30
2019,04,04,14,21,8.00
2019,04,04,14,22,8.00
2019,04,04,14,23,9.60
2019,04,04,14,24,13.00
2019,04,04,14,25,5.60
2019,04,04,14,26,1.10
2019,04,04,14,27,4.90
2019,04,04,14,28,1.00
2019,04,04,14,29,18.10
2019,04,04,14,30,14.30
2019,04,04,14,31,7.10
2019,04,04,14,32,9.30
2019,04,04,14,33,2.50
2019,04,04,14,34,7.40
2019,04,04,14,35,9.70
2019,04,04,14,36,15.40
2019,04,04,14,37,12.50
2019,04,04,14,38,2.70
2019,04,04,14,39,5.90
2019,04,04,14,40,10.90
2019,04,04,14,41,6.00
2019,04,04,14,42,3.20
2019,04,04,14,43,1.20
2019,04,04,14,44,9.00
2019,04,04,14,45,2.80
2019,04,04,14,46,8.80
2019,04,04,14,47,4.40
2019,04,04,14,48,3.10
2019,04,04,14,49,9.90
2019,04,04,14,50,12.90
2019,04,04,14,51,8.40
2019,04,04,14,52,0.00
2019,04,04,14,53,5.20
2019,04,04,14,54,0.10
2019,04,04,14,55,11.70
2019,04,04,14,56,13.00
2019,04,04,14,57,9.00
2019,04,04,14,58,6.10
2019,04,04,14,59,7.60
2019,04,04,15,00,15.10
2019,04,04,15,01,17.00
2019,04,04,15,02,14.90
2019,04,04,15,03,10.80
2019,04,04,15,04,7.90
2019,04,04,15,05,10.30
2019,04,04,15,06,15.80
2019,04,04,15,07,10.70
2019,04,04,15,08,16.30
2019,04,04,15,09,7.60
2019,04,04,15,10,7.50
2019,04,04,15,11,1.60
2019,04,04,15,12,8.00
2019,04,04,15,13,13.60
2019,04,04,15,14,11.30
2019,04,04,15,15,7.10
2019,04,04,15,16,9.90
2019,04,04,15,17,5.10
2019,04,04,15,18,8.20
2019,04,04,15,19,6.30
2019,04,04,15,20,7.60
2019,04,04,15,21,3.10
2019,04,04,15,22,0.90
2019,04,04,15,23,7.60
2019,04,04,15,24,5.70
2019,04,04,15,25,4.50
2019,04,04,15,26,10.10
2019,04,04,15,27,12.00
2019,04,04,15,28,13.90
2019,04,04,15,29,12.30
2019,04,04,15,30,13.40
2019,04,04,15,31,10.80
2019,04,04,15,32,15.70
2019,04,04,15,33,19.70
2019,04,04,15,34,12.20
2019,04,04,15,35,9.60
2019,04,04,15,36,6.10
2019,04,04,15,37,10.10
2019,04,04,15,38,0.80
2019,04,04,15,39,10.20
2019,04,04,15,40,6.30
2019,04,04,15,41,3.30
2019,04,04,15,42,12.50
2019,04,04,15,43,13.90
2019,04,04,15,44,9.30
2019,04,04,15,45,12.00
2019,04,04,15,46,6.20
2019,04,04,15,47,7.70
2019,04,04,15,48,11.50
2019,04,04,15,49,1.80
2019,04,04,15,50,12.90
2019,04,04,15,51,18.50
2019,04,04,15,52,9.90
2019,04,04,15,53,5.00
2019,04,04,15,54,7.60
2019,04,04,15,55,11.30
2019,04,04,15,56,7.40
2019,04,04,15,57,7.10
2019,04,04,15,58,3.40
2019,04,04,15,59,3.10
2019,04,04,16,00,11.40
2019,04,04,16,01,7.20
2019,04,04,16,02,15.70
2019,04,04,16,03,8.60
2019,04,04,16,04,7.20
2019,04,04,16,05,12.20
2019,04,04,16,06,7.30
2019,04,04,16,07,9.70
2019,04,04,16,08,10.30
2019,04,04,16,09,8.60
2019,04,04,16,10,2.50
2019,04,04,16,11,5.70
2019,04,04,16,12,5.30
2019,04,04,16,13,9.00
2019,04,04,16,14,0.20
2019,04,04,16,15,9.30
2019,04,04,16,16,11.60
2019,04,04,16,17,19.60
2019,04,04,16,18,19.20
2019,04,04,16,19,12.20
2019,04,04,16,20,13.50
2019,04,04,16,21,6.20
2019,04,04,16,22,13.60
2019,04,04,16,23,11.40
2019,04,04,16,24,9.70
2019,04,04,16,25,10.10
2019,04,04,16,26,11.50
2019,04,04,16,27,13.70
2019,04,04,16,28,1.50
2019,04,04,16,29,6.00
2019,04,04,16,30,0.70
2019,04,04,16,31,5.20
2019,04,04,16,32,0.00
2019,04,04,16,33,11.30
2019,04,04,16,34,14.10
2019,04,04,16,35,6.60
2019,04,04,16,36,10.30
2019,04,04,16,37,10.30
2019,04,04,16,38,8.40
2019,04,04,16,39,10.30
2019,04,04,16,40,11.80
2019,04,04,16,41,0.10
2019,04,04,16,42,4.20
2019,04,04,16,43,7.10
2019,04,04,16,44,5.90
2019,04,04,16,45,5.30
2019,04,04,16,46,5.30
2019,04,04,16,47,7.00
2019,04,04,16,48,7.50
2019,04,04,16,49,7.70
2019,04,04,16,50,0.20
2019,04,04,16,51,0.20
2019,04,04,16,52,6.10
2019,04,04,16,53,6.00
2019,04,04,16,54,0.10
2019,04,04,16,55,4.00
2019,04,04,16,56,4.80
2019,04,04,16,57,0.20
2019,04,04,16,58,0.40
2019,04,04,16,59,2.60
2019,04,04,17,00,0.20
2019,04,04,17,01,9.50
2019,04,04,17,02,3.20
2019,04,04,17,03,2.60
2019,04,04,17,04,0.30
2019,04,04,17,05,0.60
2019,04,04,17,06,0.10
2019,04,04,17,07,0.30
2019,04,04,17,08,9.20
2019,04,04,17,09,2.80
2019,04,04,17,10,6.30
2019,04,04,17,11,2.90
2019,04,04,17,12,0.10
2019,04,04,17,13,0.00
2019,04,04,17,14,0.10
2019,04,04,17,15,0.20
2019,04,04,17,16,0.00
2019,04,04,17,17,0.00
2019,04,04,17,18,0.20
2019,04,04,17,19,0.10
2019,04,04,17,20,0.10
2019,04,04,17,21,6.70
2019,04,04,17,22,1.10
2019,04,04,17,23,0.00
2019,04,04,17,24,2.80
2019,04,04,17,25,9.80
2019,04,04,17,26,3.90
2019,04,04,17,27,3.10
2019,04,04,17,28,0.10
2019,04,04,17,29,0.10
2019,04,04,17,30,0.00
2019,04,04,17,31,0.20
2019,04,04,17,32,2.80
2019,04,04,17,33,13.90
2019,04,04,17,34,16.90
2019,04,04,17,35,1.10
2019,04,04,17,36,2.50
2019,04,04,17,37,0.10
2019,04,04,17,38,0.00
2019,04,04,17,39,0.10
2019,04,04,17,40,0.00
2019,04,04,17,41,0.10
2019,04,04,17,42,0.20
2019,04,04,17,43,0.00